| time (UTC) | temp C | wind direction | speed KPH | gust KPH | rain 1hr cm | rain 24hr cm | rain mn cm | humidity % | barometer mb |
| 20260509000532 | 17 | 216 | 0.0 | 0.0 | 0.00 | 0.00 | 0.00 | 47 | 1013.4 |
| 20260509000027 | 18 | 193 | 0.0 | 0.0 | 0.00 | 0.00 | 0.00 | 46 | 1013.4 |
| 20260508235525 | 18 | 252 | 0.0 | 0.0 | 0.00 | 0.00 | 0.00 | 44 | 1013.4 |
| 20260508235021 | 18 | 240 | 1.6 | 1.6 | 0.00 | 0.00 | 0.00 | 43 | 1013.4 |
| 20260508234519 | 18 | 206 | 3.2 | 3.2 | 0.00 | 0.00 | 0.00 | 45 | 1013.4 |
| 20260508234016 | 18 | 179 | 0.0 | 0.0 | 0.00 | 0.00 | 0.00 | 49 | 1013.8 |
| 20260508233515 | 18 | 336 | 1.6 | 1.6 | 0.00 | 0.00 | 0.00 | 44 | 1013.8 |
| 20260508233012 | 19 | 275 | 3.2 | 3.2 | 0.00 | 0.00 | 0.00 | 42 | 1013.8 |
| 20260508232509 | 19 | 240 | 3.2 | 3.2 | 0.00 | 0.00 | 0.00 | 41 | 1013.8 |
| 20260508232005 | 19 | 234 | 3.2 | 3.2 | 0.00 | 0.00 | 0.00 | 43 | 1013.8 |
| 20260508231503 | 20 | 207 | 3.2 | 3.2 | 0.00 | 0.00 | 0.00 | 42 | 1013.4 |
| 20260508231000 | 20 | 240 | 3.2 | 3.2 | 0.00 | 0.00 | 0.00 | 42 | 1013.4 |
| 20260508230456 | 20 | 138 | 1.6 | 1.6 | 0.00 | 0.00 | 0.00 | 44 | 1013.4 |
| 20260508225953 | 20 | 270 | 3.2 | 3.2 | 0.00 | 0.00 | 0.00 | 42 | 1013.4 |
| 20260508225450 | 20 | 89 | 3.2 | 3.2 | 0.00 | 0.00 | 0.00 | 40 | 1013.4 |
| 20260508224947 | 20 | 177 | 3.2 | 3.2 | 0.00 | 0.00 | 0.00 | 40 | 1013.4 |
| 20260508224445 | 20 | 210 | 3.2 | 3.2 | 0.00 | 0.00 | 0.00 | 43 | 1013.8 |
| 20260508223942 | 20 | 210 | 3.2 | 3.2 | 0.00 | 0.00 | 0.00 | 41 | 1013.8 |
| 20260508223440 | 20 | 218 | 3.2 | 3.2 | 0.00 | 0.00 | 0.00 | 38 | 1013.8 |
| 20260508222937 | 20 | 198 | 4.8 | 4.8 | 0.00 | 0.00 | 0.00 | 39 | 1013.4 |
| 20260508222435 | 21 | 234 | 3.2 | 3.2 | 0.00 | 0.00 | 0.00 | 39 | 1013.4 |
| 20260508221931 | 21 | 283 | 3.2 | 3.2 | 0.00 | 0.00 | 0.00 | 40 | 1013.4 |
| 20260508221427 | 20 | 186 | 0.0 | 0.0 | 0.00 | 0.00 | 0.00 | 42 | 1013.4 |
| 20260508220923 | 21 | 76 | 3.2 | 3.2 | 0.00 | 0.00 | 0.00 | 42 | 1013.4 |
| 20260508220420 | 21 | 240 | 3.2 | 3.2 | 0.00 | 0.00 | 0.00 | 44 | 1013.4 |
| 20260508215916 | 20 | 222 | 3.2 | 3.2 | 0.00 | 0.00 | 0.00 | 40 | 1013.4 |
| 20260508215413 | 20 | 234 | 3.2 | 3.2 | 0.00 | 0.00 | 0.00 | 38 | 1013.4 |
| 20260508214910 | 21 | 216 | 3.2 | 3.2 | 0.00 | 0.00 | 0.00 | 44 | 1013.4 |
| 20260508214407 | 21 | 312 | 3.2 | 3.2 | 0.00 | 0.00 | 0.00 | 40 | 1013.4 |
| 20260508213903 | 21 | 258 | 3.2 | 3.2 | 0.00 | 0.00 | 0.00 | 40 | 1013.4 |
| 20260508213401 | 21 | 193 | 3.2 | 3.2 | 0.00 | 0.00 | 0.00 | 40 | 1013.4 |
| 20260508212856 | 21 | 282 | 4.8 | 4.8 | 0.00 | 0.00 | 0.00 | 40 | 1013.4 |
| 20260508212353 | 21 | 246 | 3.2 | 3.2 | 0.00 | 0.00 | 0.00 | 39 | 1013.4 |
| 20260508211849 | 21 | 222 | 0.0 | 0.0 | 0.00 | 0.00 | 0.00 | 40 | 1013.4 |
| 20260508211344 | 22 | 204 | 3.2 | 3.2 | 0.00 | 0.00 | 0.00 | 37 | 1013.8 |
| 20260508210842 | 22 | 187 | 3.2 | 3.2 | 0.00 | 0.00 | 0.00 | 36 | 1013.8 |
| 20260508210339 | 21 | 198 | 3.2 | 3.2 | 0.00 | 0.00 | 0.00 | 34 | 1013.8 |
| 20260508205835 | 22 | 217 | 3.2 | 3.2 | 0.00 | 0.00 | 0.00 | 37 | 1014.1 |
| 20260508205332 | 22 | 246 | 0.0 | 0.0 | 0.00 | 0.00 | 0.00 | 38 | 1014.1 |
| 20260508204828 | 22 | 168 | 3.2 | 3.2 | 0.00 | 0.00 | 0.00 | 43 | 1014.1 |
| 20260508204325 | 22 | 204 | 0.0 | 0.0 | 0.00 | 0.00 | 0.00 | 38 | 1014.8 |
| 20260508203821 | 22 | 246 | 3.2 | 3.2 | 0.00 | 0.00 | 0.00 | 38 | 1014.8 |
| 20260508203318 | 21 | 188 | 3.2 | 3.2 | 0.00 | 0.00 | 0.00 | 38 | 1014.8 |
| 20260508202813 | 22 | 264 | 4.8 | 4.8 | 0.00 | 0.00 | 0.00 | 37 | 1014.8 |
| 20260508202311 | 22 | 216 | 3.2 | 3.2 | 0.00 | 0.00 | 0.00 | 37 | 1014.8 |
| 20260508201808 | 22 | 228 | 3.2 | 3.2 | 0.00 | 0.00 | 0.00 | 39 | 1014.8 |
| 20260508201305 | 21 | 210 | 4.8 | 4.8 | 0.00 | 0.00 | 0.00 | 40 | 1015.1 |
| 20260508200801 | 21 | 204 | 3.2 | 3.2 | 0.00 | 0.00 | 0.00 | 39 | 1015.1 |
| 20260508200257 | 21 | 193 | 3.2 | 3.2 | 0.00 | 0.00 | 0.00 | 42 | 1015.1 |
| 20260508195754 | 21 | 210 | 3.2 | 3.2 | 0.00 | 0.00 | 0.00 | 41 | 1014.4 |
| 20260508195250 | 21 | 198 | 4.8 | 4.8 | 0.00 | 0.00 | 0.00 | 39 | 1014.4 |
| 20260508194747 | 21 | 60 | 3.2 | 3.2 | 0.00 | 0.00 | 0.00 | 41 | 1014.4 |
| 20260508194244 | 21 | 291 | 3.2 | 3.2 | 0.00 | 0.00 | 0.00 | 42 | 1014.8 |
| 20260508193741 | 21 | 204 | 3.2 | 3.2 | 0.00 | 0.00 | 0.00 | 43 | 1014.8 |
| 20260508193238 | 22 | 198 | 4.8 | 4.8 | 0.00 | 0.00 | 0.00 | 40 | 1014.8 |
| 20260508192734 | 22 | 184 | 3.2 | 3.2 | 0.00 | 0.00 | 0.00 | 44 | 1015.1 |
| 20260508192231 | 21 | 187 | 3.2 | 3.2 | 0.00 | 0.00 | 0.00 | 42 | 1015.1 |
| 20260508191728 | 21 | 216 | 3.2 | 3.2 | 0.00 | 0.00 | 0.00 | 36 | 1015.1 |
| 20260508191225 | 21 | 192 | 3.2 | 3.2 | 0.00 | 0.00 | 0.00 | 40 | 1015.1 |
| 20260508190722 | 21 | 222 | 3.2 | 3.2 | 0.00 | 0.00 | 0.00 | 39 | 1015.1 |
| 20260508190218 | 21 | 228 | 4.8 | 4.8 | 0.00 | 0.00 | 0.00 | 47 | 1015.1 |
| 20260508185715 | 21 | 270 | 3.2 | 3.2 | 0.00 | 0.00 | 0.00 | 40 | 1015.5 |
| 20260508185213 | 21 | 222 | 3.2 | 3.2 | 0.00 | 0.00 | 0.00 | 43 | 1015.5 |
| 20260508184710 | 21 | 210 | 3.2 | 3.2 | 0.00 | 0.00 | 0.00 | 40 | 1015.5 |
| 20260508184207 | 21 | 278 | 3.2 | 3.2 | 0.00 | 0.00 | 0.00 | 40 | 1015.5 |
| 20260508183704 | 21 | 222 | 1.6 | 1.6 | 0.00 | 0.00 | 0.00 | 36 | 1015.5 |
| 20260508183200 | 21 | 252 | 3.2 | 3.2 | 0.00 | 0.00 | 0.00 | 38 | 1015.5 |
| 20260508182656 | 21 | 222 | 3.2 | 3.2 | 0.00 | 0.00 | 0.00 | 41 | 1016.2 |
| 20260508182153 | 21 | 246 | 4.8 | 4.8 | 0.00 | 0.00 | 0.00 | 37 | 1016.2 |
| 20260508181649 | 21 | 192 | 3.2 | 3.2 | 0.00 | 0.00 | 0.00 | 43 | 1016.2 |
| 20260508181146 | 20 | 252 | 6.4 | 6.4 | 0.00 | 0.00 | 0.00 | 43 | 1016.2 |
| 20260508180642 | 21 | 216 | 4.8 | 4.8 | 0.00 | 0.00 | 0.00 | 39 | 1016.2 |
| 20260508180139 | 21 | 216 | 3.2 | 3.2 | 0.00 | 0.00 | 0.00 | 40 | 1016.2 |
| 20260508175636 | 20 | 120 | 3.2 | 3.2 | 0.00 | 0.00 | 0.00 | 40 | 1016.6 |
| 20260508175132 | 21 | 312 | 4.8 | 4.8 | 0.00 | 0.00 | 0.00 | 42 | 1016.6 |
| 20260508174630 | 21 | 216 | 3.2 | 3.2 | 0.00 | 0.00 | 0.00 | 42 | 1016.9 |
| 20260508174127 | 21 | 198 | 3.2 | 3.2 | 0.00 | 0.00 | 0.00 | 41 | 1016.9 |
| 20260508173624 | 20 | 228 | 3.2 | 3.2 | 0.00 | 0.00 | 0.00 | 42 | 1016.9 |
| 20260508173120 | 20 | 234 | 4.8 | 6.4 | 0.00 | 0.00 | 0.00 | 42 | 1016.9 |
| 20260508172617 | 21 | 155 | 3.2 | 3.2 | 0.00 | 0.00 | 0.00 | 43 | 1016.9 |
| 20260508172114 | 21 | 296 | 3.2 | 3.2 | 0.00 | 0.00 | 0.00 | 43 | 1016.9 |
| 20260508171610 | 20 | 240 | 3.2 | 3.2 | 0.00 | 0.00 | 0.00 | 46 | 1016.9 |
| 20260508171107 | 20 | 147 | 3.2 | 3.2 | 0.00 | 0.00 | 0.00 | 41 | 1017.3 |
| 20260508170604 | 20 | 198 | 0.0 | 0.0 | 0.00 | 0.00 | 0.00 | 45 | 1017.3 |
| 20260508165558 | 20 | 193 | 3.2 | 3.2 | 0.00 | 0.00 | 0.00 | 42 | 1017.9 |
| 20260508165055 | 20 | 210 | 3.2 | 3.2 | 0.00 | 0.00 | 0.00 | 42 | 1017.9 |
| 20260508164551 | 20 | 216 | 1.6 | 1.6 | 0.00 | 0.00 | 0.00 | 45 | 1017.9 |
| 20260508164048 | 20 | 198 | 0.0 | 0.0 | 0.00 | 0.00 | 0.00 | 45 | 1017.9 |
| 20260508163546 | 20 | 330 | 6.4 | 6.4 | 0.00 | 0.00 | 0.00 | 42 | 1017.9 |
| 20260508163042 | 20 | 84 | 3.2 | 3.2 | 0.00 | 0.00 | 0.00 | 45 | 1018.3 |
| 20260508162539 | 20 | 228 | 3.2 | 3.2 | 0.00 | 0.00 | 0.00 | 42 | 1018.3 |
| 20260508162037 | 20 | 126 | 3.2 | 3.2 | 0.00 | 0.00 | 0.00 | 47 | 1018.3 |
| 20260508161533 | 20 | 114 | 4.8 | 4.8 | 0.00 | 0.00 | 0.00 | 43 | 1018.3 |
| 20260508161030 | 20 | 147 | 3.2 | 3.2 | 0.00 | 0.00 | 0.00 | 51 | 1018.3 |
| 20260508160529 | 20 | 144 | 3.2 | 3.2 | 0.00 | 0.00 | 0.00 | 47 | 1018.3 |
| 20260508160026 | 20 | 222 | 3.2 | 3.2 | 0.00 | 0.00 | 0.00 | 48 | 1018.6 |
| 20260508155522 | 20 | 270 | 3.2 | 3.2 | 0.00 | 0.00 | 0.00 | 43 | 1018.6 |
| 20260508155020 | 20 | 150 | 0.0 | 0.0 | 0.00 | 0.00 | 0.00 | 46 | 1018.6 |
| 20260508154517 | 20 | 216 | 3.2 | 3.2 | 0.00 | 0.00 | 0.00 | 46 | 1019.0 |
| 20260508154014 | 19 | 192 | 1.6 | 1.6 | 0.00 | 0.00 | 0.00 | 44 | 1019.0 |
| 20260508153510 | 20 | 204 | 3.2 | 3.2 | 0.00 | 0.00 | 0.00 | 47 | 1019.0 |
| 20260508153007 | 20 | 186 | 1.6 | 1.6 | 0.00 | 0.00 | 0.00 | 45 | 1019.0 |
| 20260508152504 | 19 | 96 | 0.0 | 0.0 | 0.00 | 0.00 | 0.00 | 45 | 1019.0 |
| 20260508151959 | 20 | 96 | 3.2 | 3.2 | 0.00 | 0.00 | 0.00 | 46 | 1019.0 |
| 20260508151456 | 19 | 138 | 3.2 | 3.2 | 0.00 | 0.00 | 0.00 | 46 | 1019.0 |
| 20260508150953 | 19 | 234 | 3.2 | 3.2 | 0.00 | 0.00 | 0.00 | 45 | 1019.0 |
| 20260508150450 | 19 | 108 | 3.2 | 3.2 | 0.00 | 0.00 | 0.00 | 45 | 1019.0 |
| 20260508145945 | 18 | 290 | 3.2 | 3.2 | 0.00 | 0.00 | 0.00 | 44 | 1019.3 |
| 20260508145442 | 18 | 179 | 3.2 | 3.2 | 0.00 | 0.00 | 0.00 | 48 | 1019.3 |
| 20260508144939 | 18 | 66 | 3.2 | 3.2 | 0.00 | 0.00 | 0.00 | 46 | 1019.3 |
| 20260508144436 | 18 | 217 | 4.8 | 4.8 | 0.00 | 0.00 | 0.00 | 43 | 1019.0 |
| 20260508143934 | 19 | 264 | 3.2 | 3.2 | 0.00 | 0.00 | 0.00 | 43 | 1019.0 |
| 20260508143431 | 18 | 216 | 1.6 | 1.6 | 0.00 | 0.00 | 0.00 | 43 | 1019.0 |
| 20260508142927 | 17 | 228 | 3.2 | 3.2 | 0.00 | 0.00 | 0.00 | 43 | 1019.0 |
| 20260508142425 | 18 | 234 | 3.2 | 3.2 | 0.00 | 0.00 | 0.00 | 42 | 1019.0 |
| 20260508141921 | 18 | 210 | 0.0 | 0.0 | 0.00 | 0.00 | 0.00 | 44 | 1019.0 |
| 20260508141418 | 18 | 270 | 3.2 | 3.2 | 0.00 | 0.00 | 0.00 | 44 | 1019.3 |
| 20260508140915 | 18 | 206 | 0.0 | 0.0 | 0.00 | 0.00 | 0.00 | 44 | 1019.3 |
| 20260508140412 | 18 | 6 | 3.2 | 3.2 | 0.00 | 0.00 | 0.00 | 44 | 1019.3 |
| 20260508135908 | 17 | 198 | 3.2 | 3.2 | 0.00 | 0.00 | 0.00 | 45 | 1019.3 |
| 20260508135405 | 17 | 354 | 3.2 | 3.2 | 0.00 | 0.00 | 0.00 | 50 | 1019.3 |
| 20260508134901 | 17 | 210 | 0.0 | 0.0 | 0.00 | 0.00 | 0.00 | 48 | 1019.3 |
| 20260508134358 | 16 | 270 | 3.2 | 3.2 | 0.00 | 0.00 | 0.00 | 49 | 1019.3 |
| 20260508133854 | 16 | 144 | 3.2 | 3.2 | 0.00 | 0.00 | 0.00 | 50 | 1019.3 |
| 20260508133352 | 16 | 300 | 0.0 | 0.0 | 0.00 | 0.00 | 0.00 | 50 | 1019.3 |
| 20260508132849 | 16 | 120 | 3.2 | 3.2 | 0.00 | 0.00 | 0.00 | 52 | 1019.0 |
| 20260508132347 | 15 | 192 | 3.2 | 3.2 | 0.00 | 0.00 | 0.00 | 58 | 1019.0 |
| 20260508131843 | 15 | 228 | 0.0 | 0.0 | 0.00 | 0.00 | 0.00 | 53 | 1019.0 |
| 20260508131339 | 15 | 174 | 3.2 | 3.2 | 0.00 | 0.00 | 0.00 | 52 | 1019.0 |
| 20260508130836 | 15 | 174 | 0.0 | 0.0 | 0.00 | 0.00 | 0.00 | 53 | 1019.0 |
| 20260508130333 | 15 | 198 | 0.0 | 0.0 | 0.00 | 0.00 | 0.00 | 54 | 1019.0 |
| 20260508125829 | 16 | 288 | 0.0 | 0.0 | 0.00 | 0.00 | 0.00 | 56 | 1019.3 |
| 20260508125325 | 16 | 270 | 0.0 | 0.0 | 0.00 | 0.00 | 0.00 | 57 | 1019.3 |
| 20260508124823 | 16 | 136 | 0.0 | 0.0 | 0.00 | 0.00 | 0.00 | 56 | 1019.3 |
| 20260508124320 | 15 | 222 | 0.0 | 0.0 | 0.00 | 0.00 | 0.00 | 58 | 1019.3 |
| 20260508123818 | 15 | 240 | 0.0 | 0.0 | 0.00 | 0.00 | 0.00 | 58 | 1019.3 |
| 20260508123316 | 14 | 240 | 0.0 | 0.0 | 0.00 | 0.00 | 0.00 | 59 | 1019.3 |
| 20260508122812 | 14 | 216 | 0.0 | 0.0 | 0.00 | 0.00 | 0.00 | 59 | 1019.0 |
| 20260508122309 | 13 | 228 | 0.0 | 0.0 | 0.00 | 0.00 | 0.00 | 63 | 1019.0 |
| 20260508121806 | 13 | 198 | 0.0 | 0.0 | 0.00 | 0.00 | 0.00 | 65 | 1019.0 |
| 20260508121305 | 12 | 173 | 0.0 | 0.0 | 0.00 | 0.00 | 0.00 | 68 | 1019.0 |
| 20260508120802 | 11 | 198 | 0.0 | 0.0 | 0.00 | 0.00 | 0.00 | 70 | 1019.0 |
| 20260508120300 | 11 | 188 | 0.0 | 0.0 | 0.00 | 0.00 | 0.00 | 74 | 1019.0 |
| 20260508115757 | 10 | 126 | 0.0 | 0.0 | 0.00 | 0.00 | 0.00 | 73 | 1019.0 |
| 20260508115254 | 9 | 130 | 0.0 | 0.0 | 0.00 | 0.00 | 0.00 | 76 | 1019.0 |
| 20260508114750 | 8 | 96 | 0.0 | 0.0 | 0.00 | 0.00 | 0.00 | 77 | 1019.0 |
| 20260508114248 | 7 | 95 | 0.0 | 0.0 | 0.00 | 0.00 | 0.00 | 76 | 1018.6 |
| 20260508113744 | 6 | 95 | 0.0 | 0.0 | 0.00 | 0.00 | 0.00 | 78 | 1018.6 |
| 20260508113243 | 6 | 94 | 0.0 | 0.0 | 0.00 | 0.00 | 0.00 | 85 | 1018.6 |
| 20260508112738 | 5 | 95 | 0.0 | 0.0 | 0.00 | 0.00 | 0.00 | 95 | 1018.3 |
| 20260508112235 | 4 | 95 | 0.0 | 0.0 | 0.00 | 0.00 | 0.00 | 96 | 1018.3 |
| 20260508111732 | 4 | 95 | 0.0 | 0.0 | 0.00 | 0.00 | 0.00 | 96 | 1018.3 |
| 20260508111230 | 3 | 97 | 0.0 | 0.0 | 0.00 | 0.00 | 0.00 | 97 | 1018.6 |
| 20260508110727 | 3 | 186 | 0.0 | 0.0 | 0.00 | 0.00 | 0.00 | 96 | 1018.6 |
| 20260508110224 | 2 | 218 | 0.0 | 0.0 | 0.00 | 0.00 | 0.00 | 97 | 1018.6 |
| 20260508105724 | 2 | 218 | 0.0 | 0.0 | 0.00 | 0.00 | 0.00 | 97 | 1018.3 |
| 20260508105221 | 2 | 218 | 0.0 | 0.0 | 0.00 | 0.00 | 0.00 | 97 | 1018.3 |
| 20260508104718 | 2 | 218 | 0.0 | 0.0 | 0.00 | 0.00 | 0.00 | 97 | 1018.3 |
| 20260508104215 | 2 | 221 | 0.0 | 0.0 | 0.00 | 0.00 | 0.00 | 97 | 1018.3 |
| 20260508103713 | 2 | 216 | 0.0 | 0.0 | 0.00 | 0.00 | 0.00 | 96 | 1018.3 |
| 20260508103209 | 2 | 90 | 0.0 | 0.0 | 0.00 | 0.00 | 0.00 | 96 | 1018.3 |
| 20260508102706 | 2 | 77 | 0.0 | 0.0 | 0.00 | 0.00 | 0.00 | 97 | 1018.3 |
| 20260508102205 | 2 | 126 | 0.0 | 0.0 | 0.00 | 0.00 | 0.00 | 96 | 1018.3 |
| 20260508101702 | 2 | 120 | 0.0 | 0.0 | 0.00 | 0.00 | 0.00 | 97 | 1018.3 |
| 20260508101159 | 2 | 132 | 0.0 | 0.0 | 0.00 | 0.00 | 0.00 | 96 | 1018.3 |
| 20260508100656 | 2 | 164 | 0.0 | 0.0 | 0.00 | 0.00 | 0.00 | 96 | 1018.3 |
| 20260508100154 | 2 | 164 | 0.0 | 0.0 | 0.00 | 0.00 | 0.00 | 96 | 1018.3 |
| 20260508095650 | 2 | 156 | 0.0 | 0.0 | 0.00 | 0.00 | 0.00 | 96 | 1018.3 |
| 20260508095148 | 2 | 107 | 0.0 | 0.0 | 0.00 | 0.00 | 0.00 | 96 | 1018.3 |
| 20260508094644 | 2 | 107 | 0.0 | 0.0 | 0.00 | 0.00 | 0.00 | 97 | 1018.3 |
| 20260508094141 | 3 | 107 | 0.0 | 0.0 | 0.00 | 0.00 | 0.00 | 96 | 1018.3 |
| 20260508093639 | 3 | 102 | 0.0 | 0.0 | 0.00 | 0.00 | 0.00 | 96 | 1018.3 |
| 20260508093136 | 3 | 102 | 0.0 | 0.0 | 0.00 | 0.00 | 0.00 | 97 | 1018.3 |
| 20260508092633 | 3 | 102 | 0.0 | 0.0 | 0.00 | 0.00 | 0.00 | 97 | 1018.3 |
| 20260508092132 | 2 | 164 | 0.0 | 0.0 | 0.00 | 0.00 | 0.00 | 96 | 1018.3 |
| 20260508091629 | 2 | 222 | 0.0 | 0.0 | 0.00 | 0.00 | 0.00 | 97 | 1018.3 |
| 20260508091126 | 2 | 222 | 0.0 | 0.0 | 0.00 | 0.00 | 0.00 | 97 | 1017.9 |
| 20260508090624 | 3 | 222 | 0.0 | 0.0 | 0.00 | 0.00 | 0.00 | 97 | 1017.9 |
| 20260508090121 | 3 | 222 | 0.0 | 0.0 | 0.00 | 0.00 | 0.00 | 97 | 1017.9 |
| 20260508085616 | 3 | 221 | 0.0 | 0.0 | 0.00 | 0.00 | 0.00 | 96 | 1017.9 |
| 20260508085114 | 2 | 162 | 0.0 | 0.0 | 0.00 | 0.00 | 0.00 | 96 | 1017.9 |
| 20260508084610 | 2 | 222 | 0.0 | 0.0 | 0.00 | 0.00 | 0.00 | 96 | 1017.9 |
| 20260508084108 | 2 | 222 | 0.0 | 0.0 | 0.00 | 0.00 | 0.00 | 96 | 1018.3 |
| 20260508083605 | 2 | 222 | 0.0 | 0.0 | 0.00 | 0.00 | 0.00 | 96 | 1018.3 |
| 20260508083102 | 2 | 236 | 0.0 | 0.0 | 0.00 | 0.00 | 0.00 | 96 | 1018.3 |
| 20260508082557 | 2 | 236 | 0.0 | 0.0 | 0.00 | 0.00 | 0.00 | 96 | 1018.3 |
| 20260508082055 | 2 | 235 | 0.0 | 0.0 | 0.00 | 0.00 | 0.00 | 96 | 1018.3 |
| 20260508081552 | 3 | 236 | 0.0 | 0.0 | 0.00 | 0.00 | 0.00 | 96 | 1017.9 |
| 20260508081048 | 3 | 210 | 0.0 | 0.0 | 0.00 | 0.00 | 0.00 | 96 | 1017.9 |
| 20260508080546 | 3 | 210 | 0.0 | 0.0 | 0.00 | 0.00 | 0.00 | 96 | 1017.9 |
| 20260508080043 | 3 | 207 | 0.0 | 0.0 | 0.00 | 0.00 | 0.00 | 96 | 1018.3 |
| 20260508075540 | 3 | 227 | 0.0 | 0.0 | 0.00 | 0.00 | 0.00 | 96 | 1018.3 |
| 20260508075037 | 3 | 230 | 0.0 | 0.0 | 0.00 | 0.00 | 0.00 | 96 | 1018.3 |
| 20260508074535 | 3 | 232 | 0.0 | 0.0 | 0.00 | 0.00 | 0.00 | 96 | 1018.3 |
| 20260508074032 | 3 | 230 | 0.0 | 0.0 | 0.00 | 0.00 | 0.00 | 96 | 1018.3 |
| 20260508073529 | 3 | 232 | 0.0 | 0.0 | 0.00 | 0.00 | 0.00 | 96 | 1018.3 |
| 20260508073027 | 3 | 233 | 0.0 | 0.0 | 0.00 | 0.00 | 0.00 | 96 | 1018.6 |
| 20260508072522 | 3 | 231 | 0.0 | 0.0 | 0.00 | 0.00 | 0.00 | 96 | 1018.6 |
| 20260508072020 | 3 | 204 | 0.0 | 0.0 | 0.00 | 0.00 | 0.00 | 96 | 1018.6 |
| 20260508071517 | 3 | 181 | 0.0 | 0.0 | 0.00 | 0.00 | 0.00 | 96 | 1018.3 |
| 20260508071015 | 3 | 222 | 0.0 | 0.0 | 0.00 | 0.00 | 0.00 | 96 | 1018.3 |
| 20260508070512 | 3 | 226 | 0.0 | 0.0 | 0.00 | 0.00 | 0.00 | 96 | 1018.3 |
| 20260508070011 | 3 | 224 | 0.0 | 0.0 | 0.00 | 0.00 | 0.00 | 96 | 1018.3 |
| 20260508065508 | 3 | 207 | 0.0 | 0.0 | 0.00 | 0.00 | 0.00 | 95 | 1018.3 |
| 20260508065006 | 3 | 204 | 0.0 | 0.0 | 0.00 | 0.00 | 0.00 | 96 | 1018.3 |
| 20260508064503 | 3 | 222 | 0.0 | 0.0 | 0.00 | 0.00 | 0.00 | 96 | 1018.3 |
| 20260508064001 | 3 | 222 | 0.0 | 0.0 | 0.00 | 0.00 | 0.00 | 95 | 1018.3 |
| 20260508063458 | 3 | 222 | 0.0 | 0.0 | 0.00 | 0.00 | 0.00 | 95 | 1018.3 |
| 20260508062956 | 3 | 206 | 0.0 | 0.0 | 0.00 | 0.00 | 0.00 | 95 | 1018.3 |
| 20260508062453 | 3 | 207 | 0.0 | 0.0 | 0.00 | 0.00 | 0.00 | 95 | 1018.3 |
| 20260508061949 | 3 | 198 | 0.0 | 0.0 | 0.00 | 0.00 | 0.00 | 95 | 1018.3 |
| 20260508061448 | 3 | 224 | 0.0 | 0.0 | 0.00 | 0.00 | 0.00 | 95 | 1018.6 |
| 20260508060943 | 3 | 226 | 0.0 | 0.0 | 0.00 | 0.00 | 0.00 | 95 | 1018.6 |
| 20260508060441 | 3 | 226 | 0.0 | 0.0 | 0.00 | 0.00 | 0.00 | 95 | 1018.6 |
| 20260508055937 | 4 | 223 | 0.0 | 0.0 | 0.00 | 0.00 | 0.00 | 95 | 1018.6 |
| 20260508055434 | 4 | 222 | 0.0 | 0.0 | 0.00 | 0.00 | 0.00 | 95 | 1018.6 |
| 20260508054930 | 4 | 223 | 0.0 | 0.0 | 0.00 | 0.00 | 0.00 | 95 | 1018.6 |
| 20260508054428 | 4 | 222 | 0.0 | 0.0 | 0.00 | 0.00 | 0.00 | 95 | 1019.0 |
| 20260508053924 | 4 | 223 | 0.0 | 0.0 | 0.00 | 0.00 | 0.00 | 95 | 1019.0 |
| 20260508053421 | 4 | 223 | 0.0 | 0.0 | 0.00 | 0.00 | 0.00 | 95 | 1019.0 |
| 20260508052920 | 4 | 223 | 0.0 | 0.0 | 0.00 | 0.00 | 0.00 | 95 | 1018.6 |
| 20260508052417 | 4 | 223 | 0.0 | 0.0 | 0.00 | 0.00 | 0.00 | 94 | 1018.6 |
| 20260508051913 | 4 | 223 | 0.0 | 0.0 | 0.00 | 0.00 | 0.00 | 94 | 1018.6 |
| 20260508051409 | 4 | 224 | 0.0 | 0.0 | 0.00 | 0.00 | 0.00 | 94 | 1018.6 |
| 20260508050905 | 5 | 216 | 0.0 | 0.0 | 0.00 | 0.00 | 0.00 | 94 | 1018.6 |
| 20260508050402 | 5 | 208 | 0.0 | 0.0 | 0.00 | 0.00 | 0.00 | 94 | 1018.6 |
| 20260508045857 | 5 | 233 | 0.0 | 0.0 | 0.00 | 0.00 | 0.00 | 94 | 1018.6 |
| 20260508045355 | 5 | 238 | 0.0 | 0.0 | 0.00 | 0.00 | 0.00 | 93 | 1018.6 |
| 20260508044853 | 5 | 238 | 0.0 | 0.0 | 0.00 | 0.00 | 0.00 | 93 | 1018.6 |
| 20260508044349 | 5 | 210 | 0.0 | 0.0 | 0.00 | 0.00 | 0.00 | 93 | 1018.6 |
| 20260508043845 | 5 | 210 | 0.0 | 0.0 | 0.00 | 0.00 | 0.00 | 93 | 1018.6 |
| 20260508043343 | 5 | 210 | 0.0 | 0.0 | 0.00 | 0.00 | 0.00 | 92 | 1018.6 |
| 20260508042839 | 5 | 212 | 0.0 | 0.0 | 0.00 | 0.00 | 0.00 | 92 | 1018.6 |
| 20260508042337 | 5 | 211 | 0.0 | 0.0 | 0.00 | 0.00 | 0.00 | 92 | 1018.6 |
| 20260508041833 | 5 | 216 | 0.0 | 0.0 | 0.00 | 0.00 | 0.00 | 92 | 1018.6 |
| 20260508041330 | 5 | 216 | 0.0 | 0.0 | 0.00 | 0.00 | 0.00 | 92 | 1018.6 |
| 20260508040827 | 5 | 215 | 0.0 | 0.0 | 0.00 | 0.00 | 0.00 | 91 | 1018.6 |
| 20260508040324 | 5 | 215 | 0.0 | 0.0 | 0.00 | 0.00 | 0.00 | 91 | 1018.6 |
| 20260508035821 | 5 | 216 | 0.0 | 0.0 | 0.00 | 0.00 | 0.00 | 90 | 1018.6 |
| 20260508035318 | 5 | 216 | 0.0 | 0.0 | 0.00 | 0.00 | 0.00 | 91 | 1018.6 |
| 20260508034815 | 5 | 216 | 0.0 | 0.0 | 0.00 | 0.00 | 0.00 | 91 | 1018.6 |
| 20260508034312 | 5 | 216 | 0.0 | 0.0 | 0.00 | 0.00 | 0.00 | 90 | 1018.6 |
| 20260508033809 | 5 | 216 | 0.0 | 0.0 | 0.00 | 0.00 | 0.00 | 90 | 1018.6 |
| 20260508033308 | 5 | 216 | 0.0 | 0.0 | 0.00 | 0.00 | 0.00 | 90 | 1018.6 |
| 20260508032805 | 5 | 216 | 0.0 | 0.0 | 0.00 | 0.00 | 0.00 | 90 | 1018.6 |
| 20260508032306 | 5 | 216 | 0.0 | 0.0 | 0.00 | 0.00 | 0.00 | 90 | 1018.6 |
| 20260508031758 | 6 | 216 | 0.0 | 0.0 | 0.00 | 0.00 | 0.00 | 88 | 1018.6 |
| 20260508031255 | 6 | 216 | 0.0 | 0.0 | 0.00 | 0.00 | 0.00 | 88 | 1019.0 |
| 20260508030751 | 6 | 216 | 0.0 | 0.0 | 0.00 | 0.00 | 0.00 | 87 | 1019.0 |
| 20260508030249 | 6 | 216 | 0.0 | 0.0 | 0.00 | 0.00 | 0.00 | 87 | 1019.0 |
| 20260508025745 | 6 | 216 | 0.0 | 0.0 | 0.00 | 0.00 | 0.00 | 86 | 1018.6 |
| 20260508025242 | 6 | 216 | 0.0 | 0.0 | 0.00 | 0.00 | 0.00 | 86 | 1018.6 |
| 20260508024738 | 6 | 216 | 0.0 | 0.0 | 0.00 | 0.00 | 0.00 | 84 | 1018.6 |
| 20260508024235 | 6 | 216 | 0.0 | 0.0 | 0.00 | 0.00 | 0.00 | 83 | 1018.6 |
| 20260508023732 | 6 | 216 | 0.0 | 0.0 | 0.00 | 0.00 | 0.00 | 83 | 1018.6 |
| 20260508023230 | 6 | 216 | 0.0 | 0.0 | 0.00 | 0.00 | 0.00 | 83 | 1018.6 |
| 20260508022725 | 7 | 216 | 0.0 | 0.0 | 0.00 | 0.00 | 0.00 | 83 | 1018.6 |
| 20260508022222 | 7 | 216 | 0.0 | 0.0 | 0.00 | 0.00 | 0.00 | 82 | 1018.6 |
| 20260508021719 | 7 | 216 | 0.0 | 0.0 | 0.00 | 0.00 | 0.00 | 81 | 1018.6 |
| 20260508021214 | 7 | 216 | 0.0 | 0.0 | 0.00 | 0.00 | 0.00 | 82 | 1018.3 |
| 20260508020712 | 7 | 217 | 0.0 | 0.0 | 0.00 | 0.00 | 0.00 | 80 | 1018.3 |
| 20260508020209 | 7 | 217 | 0.0 | 0.0 | 0.00 | 0.00 | 0.00 | 79 | 1018.3 |
| 20260508015706 | 7 | 217 | 0.0 | 0.0 | 0.00 | 0.00 | 0.00 | 78 | 1018.3 |
| 20260508015203 | 8 | 217 | 0.0 | 0.0 | 0.00 | 0.00 | 0.00 | 76 | 1018.3 |
| 20260508014700 | 8 | 217 | 0.0 | 0.0 | 0.00 | 0.00 | 0.00 | 75 | 1018.3 |
| 20260508014156 | 8 | 217 | 0.0 | 0.0 | 0.00 | 0.00 | 0.00 | 73 | 1017.9 |
| 20260508013652 | 8 | 217 | 0.0 | 0.0 | 0.00 | 0.00 | 0.00 | 76 | 1017.9 |
| 20260508013149 | 8 | 217 | 0.0 | 0.0 | 0.00 | 0.00 | 0.00 | 75 | 1017.9 |
| 20260508012647 | 8 | 217 | 0.0 | 0.0 | 0.00 | 0.00 | 0.00 | 73 | 1017.9 |
| 20260508012143 | 9 | 225 | 0.0 | 0.0 | 0.00 | 0.00 | 0.00 | 71 | 1017.9 |
| 20260508011642 | 9 | 227 | 0.0 | 0.0 | 0.00 | 0.00 | 0.00 | 68 | 1017.9 |
| 20260508011139 | 9 | 227 | 0.0 | 0.0 | 0.00 | 0.00 | 0.00 | 67 | 1017.9 |
| 20260508010635 | 10 | 228 | 0.0 | 0.0 | 0.00 | 0.00 | 0.00 | 69 | 1017.9 |
| 20260508010134 | 10 | 228 | 0.0 | 0.0 | 0.00 | 0.00 | 0.00 | 68 | 1017.9 |
| 20260508005630 | 10 | 228 | 0.0 | 0.0 | 0.00 | 0.00 | 0.00 | 64 | 1017.6 |
| 20260508005127 | 11 | 229 | 0.0 | 0.0 | 0.00 | 0.00 | 0.00 | 59 | 1017.6 |
| 20260508004622 | 11 | 229 | 0.0 | 0.0 | 0.00 | 0.00 | 0.00 | 57 | 1017.6 |
| 20260508004119 | 11 | 228 | 0.0 | 0.0 | 0.00 | 0.00 | 0.00 | 56 | 1017.3 |
| 20260508003615 | 12 | 228 | 0.0 | 0.0 | 0.00 | 0.00 | 0.00 | 51 | 1017.3 |
| 20260508003114 | 12 | 228 | 0.0 | 0.0 | 0.00 | 0.00 | 0.00 | 50 | 1017.3 |
| 20260508002610 | 13 | 230 | 0.0 | 0.0 | 0.00 | 0.00 | 0.00 | 48 | 1017.3 |
| 20260508002108 | 13 | 236 | 0.0 | 0.0 | 0.00 | 0.00 | 0.00 | 45 | 1017.3 |
| 20260508001602 | 13 | 246 | 3.2 | 3.2 | 0.00 | 0.00 | 0.00 | 46 | 1017.3 |
| 20260508001059 | 13 | 246 | 0.0 | 0.0 | 0.00 | 0.00 | 0.00 | 44 | 1017.3 |